Stations météo

Publicité
Tyndrum, Grande-Bretagne (99020): Température de l'air & dewpoint: 21.06.2019 11:00:00 - 27.06.2019 11:00:00 (BST)Tyndrum, Grande-Bretagne (99020): Quantités de précipitations: 21.06.2019 11:00:00 - 27.06.2019 11:00:00 (BST)
Date & Time tt [°C] td [°C] rr [mm]
27.06.2019 11:00:00 - - -
27.06.2019 10:00:00 - - -
27.06.2019 09:00:00 - - -
27.06.2019 08:00:00 - - -
27.06.2019 07:00:00 - - -
27.06.2019 06:00:00 - - -
27.06.2019 05:00:00 - - -
27.06.2019 04:00:00 - - -
27.06.2019 03:00:00 8,2 7,5 0,0
27.06.2019 02:00:00 8,4 7,1 0,0
27.06.2019 01:00:00 9,7 7,9 0,0
27.06.2019 00:00:00 12,0 8,9 0,0
26.06.2019 23:00:00 12,8 9,3 0,0
26.06.2019 22:00:00 14,4 9,2 0,0
26.06.2019 21:00:00 17,4 9,2 0,0
26.06.2019 20:00:00 20,5 9,0 0,0
26.06.2019 19:00:00 21,5 8,7 0,0
26.06.2019 18:00:00 22,6 9,7 0,0
26.06.2019 17:00:00 23,4 8,6 0,0
26.06.2019 16:00:00 23,1 10,1 0,0
26.06.2019 15:00:00 22,5 5,7 0,0
26.06.2019 14:00:00 21,9 3,0 0,0
26.06.2019 13:00:00 20,8 5,8 0,0
26.06.2019 12:00:00 19,6 6,1 0,0
26.06.2019 11:00:00 18,7 7,6 0,0
26.06.2019 10:00:00 16,1 7,4 0,0
26.06.2019 09:00:00 13,6 7,7 0,0
26.06.2019 08:00:00 10,1 9,9 0,0
26.06.2019 07:00:00 6,0 5,8 0,0
26.06.2019 06:00:00 3,9 3,5 0,0
26.06.2019 05:00:00 4,5 4,0 0,0
26.06.2019 04:00:00 5,9 5,4 0,0
26.06.2019 03:00:00 6,3 5,5 0,0
26.06.2019 02:00:00 7,6 6,6 0,0
26.06.2019 01:00:00 8,0 6,4 0,0
26.06.2019 00:00:00 10,3 8,0 0,0
25.06.2019 23:00:00 11,9 9,0 0,0
25.06.2019 22:00:00 14,4 9,6 0,0
25.06.2019 21:00:00 15,5 10,0 0,0
25.06.2019 20:00:00 16,5 10,5 0,0
25.06.2019 19:00:00 17,5 10,7 0,0
25.06.2019 18:00:00 17,4 11,4 0,0
25.06.2019 17:00:00 17,8 11,5 0,0
25.06.2019 16:00:00 17,6 12,0 0,0
25.06.2019 15:00:00 17,8 11,1 0,0
25.06.2019 14:00:00 17,9 11,2 0,0
25.06.2019 13:00:00 18,9 12,0 0,0
25.06.2019 12:00:00 19,2 12,7 0,0
25.06.2019 11:00:00 18,5 11,7 0,0
25.06.2019 10:00:00 17,1 11,0 0,0
25.06.2019 09:00:00 15,6 9,7 0,0
25.06.2019 08:00:00 14,6 9,6 0,0
25.06.2019 07:00:00 13,8 10,5 0,0
25.06.2019 06:00:00 12,1 10,7 0,0
25.06.2019 05:00:00 11,7 10,8 0,0
25.06.2019 04:00:00 11,3 10,6 0,0
25.06.2019 03:00:00 11,4 10,1 0,0
25.06.2019 02:00:00 12,9 11,2 0,0
25.06.2019 01:00:00 13,4 11,4 0,0
25.06.2019 00:00:00 13,4 12,0 0,0
24.06.2019 23:00:00 13,6 12,4 0,0
24.06.2019 22:00:00 14,0 12,5 0,0
24.06.2019 21:00:00 14,2 12,9 0,0
24.06.2019 20:00:00 14,9 13,3 0,0
24.06.2019 19:00:00 15,0 14,0 0,6
24.06.2019 18:00:00 15,0 13,3 0,4
24.06.2019 17:00:00 14,5 12,8 0,2
24.06.2019 16:00:00 14,7 12,4 0,8
24.06.2019 15:00:00 15,2 12,5 0,0
24.06.2019 14:00:00 15,8 12,2 0,0
24.06.2019 13:00:00 14,0 11,5 0,0
24.06.2019 12:00:00 13,2 11,5 0,0
24.06.2019 11:00:00 12,8 11,3 0,0
24.06.2019 10:00:00 12,4 10,9 0,0
24.06.2019 09:00:00 12,0 10,5 0,0
24.06.2019 08:00:00 11,5 10,7 0,2
24.06.2019 07:00:00 11,2 10,3 0,6
24.06.2019 06:00:00 11,4 9,8 1,2
24.06.2019 05:00:00 11,9 9,4 0,0
24.06.2019 04:00:00 11,9 7,9 0,0
24.06.2019 03:00:00 10,9 7,8 0,0
24.06.2019 02:00:00 11,2 8,0 0,0
24.06.2019 01:00:00 12,2 7,1 0,0
24.06.2019 00:00:00 12,3 7,0 0,0
23.06.2019 23:00:00 13,2 4,4 0,0
23.06.2019 22:00:00 13,2 4,9 0,0
23.06.2019 21:00:00 14,4 5,0 0,0
23.06.2019 20:00:00 15,9 6,2 0,0
23.06.2019 19:00:00 17,4 9,9 0,0
23.06.2019 18:00:00 18,7 11,9 0,0
23.06.2019 17:00:00 19,6 11,1 0,0
23.06.2019 16:00:00 22,0 10,9 0,0
23.06.2019 15:00:00 20,1 10,8 0,0
23.06.2019 14:00:00 21,0 11,7 0,0
23.06.2019 13:00:00 19,1 10,7 0,0
23.06.2019 12:00:00 18,3 10,6 0,0
23.06.2019 11:00:00 18,7 10,7 0,0
23.06.2019 10:00:00 16,9 9,6 0,0
23.06.2019 09:00:00 15,0 9,1 0,0
23.06.2019 08:00:00 13,6 10,8 0,0
23.06.2019 07:00:00 10,5 10,2 0,0
23.06.2019 06:00:00 8,5 8,2 0,0
23.06.2019 05:00:00 7,5 7,2 0,0
23.06.2019 04:00:00 6,9 6,4 0,0
23.06.2019 03:00:00 7,1 6,4 0,0
23.06.2019 02:00:00 7,8 7,1 0,0
23.06.2019 01:00:00 8,6 7,6 0,0
23.06.2019 00:00:00 9,9 8,1 0,0
22.06.2019 23:00:00 11,1 9,0 0,0
22.06.2019 22:00:00 12,2 9,5 0,0
22.06.2019 21:00:00 13,8 10,4 0,0
22.06.2019 20:00:00 16,0 9,5 0,0
22.06.2019 19:00:00 16,3 5,9 0,0
22.06.2019 18:00:00 16,6 7,5 0,0
22.06.2019 17:00:00 15,6 7,0 0,0
22.06.2019 16:00:00 14,8 7,9 0,0
22.06.2019 15:00:00 14,4 7,5 0,0
22.06.2019 14:00:00 15,5 8,7 0,0
22.06.2019 13:00:00 15,4 8,5 0,0
22.06.2019 12:00:00 13,5 8,5 0,0
22.06.2019 11:00:00 13,9 8,4 0,0
22.06.2019 10:00:00 13,6 7,6 0,0
22.06.2019 09:00:00 12,9 8,1 0,0
22.06.2019 08:00:00 9,9 8,0 0,0
22.06.2019 07:00:00 7,5 7,2 0,0
22.06.2019 06:00:00 6,6 6,2 0,0
22.06.2019 05:00:00 6,4 5,9 0,0
22.06.2019 04:00:00 6,1 5,6 0,0
22.06.2019 03:00:00 6,1 5,7 0,0
22.06.2019 02:00:00 5,6 5,1 0,0
22.06.2019 01:00:00 5,3 4,7 0,0
22.06.2019 00:00:00 5,0 4,0 0,0
21.06.2019 23:00:00 6,0 4,1 0,0
21.06.2019 22:00:00 8,9 5,4 0,0
21.06.2019 21:00:00 11,1 5,4 0,0
21.06.2019 20:00:00 13,5 5,6 0,0
21.06.2019 19:00:00 14,0 5,4 0,0
21.06.2019 18:00:00 15,2 7,4 0,0
21.06.2019 17:00:00 15,0 6,8 0,0
21.06.2019 16:00:00 15,2 7,0 0,0
21.06.2019 15:00:00 13,6 8,2 0,2
21.06.2019 14:00:00 14,4 7,0 0,0
21.06.2019 13:00:00 13,3 7,8 0,0
21.06.2019 12:00:00 11,8 7,0 0,0
21.06.2019 11:00:00 11,9 6,5 0,0

tt = Température de l'air
td = dewpoint
rr = Quantités de précipitations

stations d'obs. à proximité